• In Moldova, Republic
  • List of Countries
  • For 7 days
  • Water Temperature
  • Satellite Maps
  • Weather Map
  • Weather Widgets
  • user-avatar
    Login

    Hourly Weather Gjirokaster

    Today, 18 August, Friday

    Time Temperature Precipitation Wind Pressure Humidity
    00:00 +17°C° 0 mm 2 mps 653 mmHg 47%
    01:00 +17°C° 0 mm 2 mps 653 mmHg 48%
    02:00 +17°C° 0 mm 2 mps 653 mmHg 49%
    03:00 +17°C° 0 mm 2 mps 653 mmHg 49%
    04:00 +16°C° 0 mm 2 mps 653 mmHg 50%
    05:00 +18°C° 0 mm 2 mps 654 mmHg 47%
    06:00 +19°C° 0 mm 2 mps 654 mmHg 45%
    07:00 +21°C° 0 mm 3 mps 655 mmHg 40%
    08:00 +24°C° 0 mm 2 mps 655 mmHg 37%
    09:00 +26°C° 0 mm 2 mps 656 mmHg 34%
    10:00 +27°C° 0 mm 1 mps 656 mmHg 30%
    11:00 +27°C° 0 mm 2 mps 656 mmHg 30%
    12:00 +27°C° 0 mm 2 mps 656 mmHg 30%
    13:00 +27°C° 0 mm 3 mps 656 mmHg 30%
    14:00 +27°C° 0 mm 3 mps 655 mmHg 32%
    15:00 +26°C° 0 mm 3 mps 655 mmHg 33%
    16:00 +26°C° 0 mm 3 mps 655 mmHg 35%
    17:00 +24°C° 0 mm 2 mps 655 mmHg 39%
    18:00 +23°C° 0 mm 2 mps 654 mmHg 43%
    19:00 +20°C° 0 mm 2 mps 654 mmHg 47%
    20:00 +19°C° 0 mm 2 mps 654 mmHg 49%
    21:00 +18°C° 0 mm 2 mps 654 mmHg 51%
    22:00 +19°C° 0 mm 1 mps 654 mmHg 53%
    23:00 +17°C° 0 mm 2 mps 654 mmHg 53%

    Tomorrow, 19 August, Saturday

    Time Temperature Precipitation Wind Pressure Humidity
    00:00 +17°C° 0 mm 2 mps 654 mmHg 53%
    01:00 +17°C° 0 mm 2 mps 654 mmHg 53%
    02:00 +17°C° 0 mm 2 mps 654 mmHg 53%
    03:00 +16°C° 0 mm 1 mps 654 mmHg 53%
    04:00 +16°C° 0 mm 1 mps 653 mmHg 53%
    05:00 +19°C° 0 mm 1 mps 654 mmHg 50%
    06:00 +20°C° 0 mm 1 mps 654 mmHg 46%
    07:00 +22°C° 0 mm 1 mps 655 mmHg 43%
    08:00 +24°C° 0 mm 1 mps 655 mmHg 39%
    09:00 +26°C° 0 mm 1 mps 656 mmHg 34%
    10:00 +28°C° 0 mm 1 mps 656 mmHg 29%
    11:00 +28°C° 0 mm 2 mps 656 mmHg 29%
    12:00 +28°C° 0 mm 2 mps 656 mmHg 28%
    13:00 +28°C° 0 mm 3 mps 655 mmHg 28%
    14:00 +27°C° 0 mm 3 mps 655 mmHg 30%
    15:00 +27°C° 0 mm 3 mps 655 mmHg 33%
    16:00 +26°C° 0 mm 2 mps 654 mmHg 35%
    17:00 +24°C° 0 mm 2 mps 654 mmHg 39%
    18:00 +23°C° 0 mm 2 mps 654 mmHg 42%
    19:00 +21°C° 0 mm 1 mps 653 mmHg 46%
    20:00 +20°C° 0 mm 1 mps 654 mmHg 48%
    21:00 +19°C° 0 mm 1 mps 654 mmHg 49%
    22:00 +19°C° 0 mm 1 mps 654 mmHg 51%
    23:00 +18°C° 0 mm 1 mps 653 mmHg 51%

    Day after tomorrow, 20 August, Sunday

    Time Temperature Precipitation Wind Pressure Humidity
    00:00 +18°C° 0 mm 1 mps 653 mmHg 52%
    01:00 +18°C° 0 mm 1 mps 653 mmHg 52%
    02:00 +16°C° 0 mm 1 mps 653 mmHg 53%
    03:00 +16°C° 0 mm 1 mps 652 mmHg 53%
    04:00 +16°C° 0 mm 1 mps 652 mmHg 54%
    05:00 +18°C° 0 mm 1 mps 652 mmHg 50%
    06:00 +20°C° 0 mm 1 mps 653 mmHg 46%
    07:00 +22°C° 0 mm 1 mps 653 mmHg 43%
    08:00 +24°C° 0 mm 1 mps 654 mmHg 37%
    09:00 +25°C° 0 mm 2 mps 654 mmHg 32%
    10:00 +27°C° 0 mm 2 mps 655 mmHg 27%
    11:00 +27°C° 0 mm 2 mps 654 mmHg 26%
    12:00 +28°C° 0 mm 3 mps 654 mmHg 26%
    13:00 +28°C° 0 mm 3 mps 654 mmHg 26%
    14:00 +27°C° 0 mm 3 mps 653 mmHg 28%
    15:00 +27°C° 0 mm 3 mps 653 mmHg 30%
    16:00 +26°C° 0 mm 3 mps 653 mmHg 31%
    17:00 +24°C° 0 mm 2 mps 652 mmHg 37%
    18:00 +21°C° 0 mm 2 mps 652 mmHg 43%
    19:00 +20°C° 0 mm 1 mps 651 mmHg 49%
    20:00 +19°C° 0 mm 1 mps 651 mmHg 51%
    21:00 +18°C° 0 mm 1 mps 651 mmHg 53%
    22:00 +16°C° 0 mm 0 mps 651 mmHg 55%
    23:00 +16°C° 0 mm 1 mps 651 mmHg 57%

    21 August, Monday

    Time Temperature Precipitation Wind Pressure Humidity
    00:00 +16°C° 0 mm 2 mps 651 mmHg 59%
    01:00 +16°C° 0 mm 2 mps 651 mmHg 62%
    02:00 +15°C° 0.1 mm 2 mps 651 mmHg 64%
    03:00 +15°C° 0.1 mm 2 mps 650 mmHg 66%
    04:00 +15°C° 0.1 mm 2 mps 650 mmHg 68%
    05:00 +16°C° 0 mm 2 mps 651 mmHg 65%
    06:00 +18°C° 0 mm 1 mps 651 mmHg 62%
    07:00 +19°C° 0 mm 1 mps 651 mmHg 58%
    08:00 +20°C° 0.1 mm 1 mps 652 mmHg 53%
    09:00 +22°C° 0.1 mm 1 mps 652 mmHg 48%
    10:00 +23°C° 0.1 mm 2 mps 652 mmHg 43%
    11:00 +24°C° 0 mm 2 mps 652 mmHg 41%
    12:00 +25°C° 0 mm 3 mps 652 mmHg 38%
    13:00 +26°C° 0 mm 4 mps 652 mmHg 36%
    14:00 +25°C° 0 mm 4 mps 652 mmHg 38%
    15:00 +25°C° 0 mm 5 mps 652 mmHg 40%
    16:00 +23°C° 0 mm 5 mps 652 mmHg 43%
    17:00 +21°C° 0 mm 4 mps 651 mmHg 49%
    18:00 +19°C° 0 mm 4 mps 651 mmHg 55%
    19:00 +17°C° 0 mm 4 mps 651 mmHg 61%
    20:00 +17°C° 0 mm 4 mps 651 mmHg 65%
    21:00 +15°C° 0 mm 4 mps 651 mmHg 69%
    22:00 +14°C° 0 mm 3 mps 651 mmHg 72%
    23:00 +13°C° 0 mm 3 mps 651 mmHg 72%

    22 August, Tuesday

    Time Temperature Precipitation Wind Pressure Humidity
    00:00 +13°C° 0 mm 3 mps 651 mmHg 72%
    01:00 +13°C° 0 mm 3 mps 651 mmHg 71%
    02:00 +12°C° 0 mm 3 mps 651 mmHg 70%
    03:00 +12°C° 0 mm 3 mps 651 mmHg 70%
    04:00 +11°C° 0 mm 3 mps 651 mmHg 69%
    05:00 +13°C° 0 mm 3 mps 651 mmHg 63%
    06:00 +14°C° 0 mm 3 mps 652 mmHg 57%
    07:00 +16°C° 0 mm 3 mps 652 mmHg 51%
    08:00 +18°C° 0 mm 3 mps 653 mmHg 45%
    09:00 +20°C° 0 mm 3 mps 653 mmHg 40%
    10:00 +23°C° 0 mm 2 mps 654 mmHg 34%
    11:00 +24°C° 0 mm 3 mps 654 mmHg 31%
    12:00 +23°C° 0 mm 4 mps 654 mmHg 28%
    13:00 +25°C° 0 mm 5 mps 654 mmHg 25%
    14:00 +25°C° 0 mm 5 mps 653 mmHg 26%
    15:00 +25°C° 0 mm 5 mps 653 mmHg 26%
    16:00 +23°C° 0 mm 6 mps 653 mmHg 27%
    17:00 +21°C° 0 mm 5 mps 653 mmHg 32%
    18:00 +17°C° 0 mm 5 mps 652 mmHg 37%
    19:00 +15°C° 0 mm 4 mps 652 mmHg 43%
    20:00 +14°C° 0 mm 4 mps 652 mmHg 45%
    21:00 +13°C° 0 mm 4 mps 652 mmHg 47%
    22:00 +12°C° 0 mm 3 mps 652 mmHg 49%
    23:00 +12°C° 0 mm 3 mps 652 mmHg 48%

    23 August, Wednesday

    Time Temperature Precipitation Wind Pressure Humidity
    00:00 +12°C° 0 mm 3 mps 652 mmHg 48%
    01:00 +11°C° 0 mm 3 mps 652 mmHg 48%
    02:00 +11°C° 0 mm 3 mps 652 mmHg 47%
    03:00 +11°C° 0 mm 3 mps 652 mmHg 47%
    04:00 +12°C° 0 mm 2 mps 652 mmHg 46%
    05:00 +13°C° 0 mm 2 mps 653 mmHg 44%
    06:00 +14°C° 0 mm 2 mps 653 mmHg 41%
    07:00 +16°C° 0 mm 2 mps 654 mmHg 38%
    08:00 +18°C° 0 mm 2 mps 654 mmHg 34%
    09:00 +20°C° 0 mm 2 mps 655 mmHg 31%
    10:00 +24°C° 0 mm 1 mps 656 mmHg 28%
    11:00 +24°C° 0 mm 2 mps 655 mmHg 26%
    12:00 +25°C° 0 mm 3 mps 655 mmHg 25%
    13:00 +26°C° 0 mm 3 mps 655 mmHg 24%
    14:00 +25°C° 0 mm 4 mps 655 mmHg 25%
    15:00 +25°C° 0 mm 4 mps 655 mmHg 26%
    16:00 +23°C° 0 mm 4 mps 655 mmHg 27%
    17:00 +21°C° 0 mm 4 mps 655 mmHg 32%
    18:00 +19°C° 0 mm 3 mps 654 mmHg 36%
    19:00 +16°C° 0 mm 3 mps 654 mmHg 41%
    20:00 +14°C° 0 mm 3 mps 654 mmHg 42%
    21:00 +15°C° 0 mm 2 mps 654 mmHg 43%
    22:00 +14°C° 0 mm 2 mps 654 mmHg 43%
    23:00 +14°C° 0 mm 2 mps 654 mmHg 43%
    Show more